Simultaneous Nadir Overpasses (SNOs) Predictions

Prediction of SNOs between FY3D and METOP-A Satellite Orbit:

Table of predicted SNOs for the next 14.0 days since TLE Epoch: 8/24/2019
Index Date (FY3D) Time (FY3D) Lat,Lon (FY3D) SZA (FY3D ) Date (METOP-A) Time (METOP-A) Lat,Lon (METOP-A) SZA (METOP-A ) Distance(km) Time Diff (sec)
1 08/28/2019 13:42:34 75.27, -38.83 65.95 08/28/2019 13:43:41 75.22, -36.07 65.72 78.33 67
2 08/28/2019 14:33:16 -75.21, 128.68 114.12 08/28/2019 14:34:24 -75.18, 131.12 114.31 69.41 68
3 08/28/2019 15:23:57 74.98, -63.34 65.63 08/28/2019 15:25:08 74.96, -62.14 65.53 34.78 71
4 08/28/2019 16:14:39 -74.91, 104.16 114.43 08/28/2019 16:15:52 -74.87, 104.93 114.54 22.84 73
5 08/28/2019 17:05:21 74.73, -88.02 65.37 08/28/2019 17:06:34 74.75, -88.06 65.38 2.63 73
6 08/28/2019 17:56:05 -74.76, 79.21 114.58 08/28/2019 17:57:16 -74.76, 79.28 114.61 2.21 71
7 08/28/2019 18:46:50 74.72,-113.38 65.39 08/28/2019 18:47:56 74.73,-113.45 65.39 2.40 66
8 08/28/2019 19:37:34 -74.75, 53.85 114.57 08/28/2019 19:38:38 -74.74, 53.89 114.60 2.14 64
9 08/28/2019 20:28:19 74.72,-138.73 65.41 08/28/2019 20:29:18 74.72,-138.83 65.40 3.07 59
10 08/28/2019 21:19:03 -74.75, 28.50 114.55 08/28/2019 21:20:00 -74.72, 28.50 114.59 2.99 57
11 08/28/2019 22:09:49 74.76,-164.21 65.48 08/28/2019 22:10:39 74.75,-164.09 65.45 3.70 50
12 08/28/2019 23:00:32 -74.74, 3.15 114.53 08/28/2019 23:01:21 -74.75, 3.25 114.54 3.06 49
13 08/28/2019 23:51:18 74.75, 170.44 65.49 08/28/2019 23:52:01 74.73, 170.52 65.46 3.28 43
14 08/29/2019 00:42:01 -74.73, -22.20 114.52 08/29/2019 00:42:43 -74.73, -22.14 114.53 1.76 42
15 08/29/2019 01:32:46 74.69, 145.22 65.46 08/29/2019 01:33:23 74.71, 145.13 65.47 3.21 37
16 08/29/2019 02:23:30 -74.73, -47.55 114.50 08/29/2019 02:24:05 -74.72, -47.53 114.52 1.21 35
17 08/29/2019 03:14:15 74.69, 119.86 65.47 08/29/2019 03:14:45 74.70, 119.75 65.48 3.57 30
18 08/29/2019 04:04:59 -74.72, -72.91 114.48 08/29/2019 04:05:27 -74.70, -72.92 114.51 2.13 28
19 08/29/2019 04:55:45 74.73, 94.38 65.54 08/29/2019 04:56:06 74.73, 94.49 65.53 3.21 21
20 08/29/2019 05:46:28 -74.71, -98.26 114.47 08/29/2019 05:46:48 -74.73, -98.17 114.46 3.27 20
21 08/29/2019 06:37:14 74.72, 69.03 65.56 08/29/2019 06:37:28 74.71, 69.10 65.54 2.49 14
22 08/29/2019 07:27:57 -74.70,-123.61 114.45 08/29/2019 07:28:10 -74.71,-123.56 114.45 1.76 13
23 08/29/2019 08:18:43 74.71, 43.68 65.58 08/29/2019 08:18:50 74.69, 43.71 65.55 2.63 7
24 08/29/2019 09:09:26 -74.70,-148.96 114.43 08/29/2019 09:09:32 -74.70,-148.95 114.44 0.41 6
25 08/29/2019 10:00:12 74.71, 18.32 65.59 08/29/2019 10:00:12 74.67, 18.33 65.56 3.53 0
26 08/29/2019 10:50:55 -74.69,-174.31 114.42 08/29/2019 10:50:54 -74.68,-174.33 114.43 1.37 1
27 08/29/2019 11:41:41 74.70, -7.03 65.61 08/29/2019 11:41:33 74.71, -6.93 65.61 2.95 8
28 08/29/2019 12:32:24 -74.68, 160.33 114.40 08/29/2019 12:32:16 -74.66, 160.28 114.42 2.87 8
29 08/29/2019 13:23:10 74.69, -32.38 65.63 08/29/2019 13:22:55 74.69, -32.32 65.62 1.85 15
30 08/29/2019 14:13:53 -74.68, 134.98 114.38 08/29/2019 14:13:37 -74.69, 135.02 114.37 2.23 16
31 08/29/2019 15:04:39 74.69, -57.73 65.64 08/29/2019 15:04:17 74.67, -57.71 65.63 1.72 22
32 08/29/2019 15:55:22 -74.67, 109.63 114.37 08/29/2019 15:54:59 -74.68, 109.63 114.35 0.80 23
33 08/29/2019 16:46:08 74.68, -83.08 65.66 08/29/2019 16:45:39 74.65, -83.09 65.64 2.70 29
34 08/29/2019 17:36:51 -74.66, 84.28 114.35 08/29/2019 17:36:21 -74.66, 84.25 114.34 0.99 30
35 08/29/2019 18:27:37 74.67,-108.44 65.68 08/29/2019 18:27:00 74.69,-108.35 65.69 2.97 37
36 08/29/2019 19:18:20 -74.66, 58.93 114.33 08/29/2019 19:17:43 -74.64, 58.86 114.33 2.44 37
37 08/29/2019 20:09:06 74.66,-133.79 65.69 08/29/2019 20:08:22 74.67,-133.74 65.70 1.54 44
38 08/29/2019 20:59:49 -74.65, 33.57 114.32 08/29/2019 20:59:04 -74.67, 33.60 114.28 2.93 45
39 08/29/2019 21:50:35 74.66,-159.14 65.71 08/29/2019 21:49:44 74.65,-159.12 65.72 0.82 51
40 08/29/2019 22:41:18 -74.64, 8.22 114.30 08/29/2019 22:40:26 -74.66, 8.21 114.27 1.70 52
41 08/29/2019 23:32:04 74.65, 175.51 65.73 08/29/2019 23:31:06 74.63, 175.49 65.73 1.93 58
42 08/30/2019 00:22:47 -74.63, -17.13 114.28 08/30/2019 00:21:48 -74.64, -17.17 114.26 1.35 59
43 08/30/2019 01:13:33 74.64, 150.16 65.74 08/30/2019 01:12:27 74.66, 150.23 65.78 3.27 66
44 08/30/2019 02:04:16 -74.63, -42.48 114.27 08/30/2019 02:03:10 -74.62, -42.56 114.25 2.32 66
45 08/30/2019 02:55:02 74.64, 124.80 65.76 08/30/2019 02:53:49 74.65, 124.84 65.79 1.73 73
46 08/30/2019 03:45:44 -74.62, -67.83 114.25 08/30/2019 03:44:31 -74.60, -67.95 114.24 3.68 73
47 08/30/2019 04:36:26 74.43, 99.97 65.56 08/30/2019 04:35:14 74.43, 98.95 65.64 30.48 72
48 08/30/2019 05:27:09 -74.42, -92.67 114.45 08/30/2019 05:25:57 -74.39, -93.84 114.39 34.87 72
49 08/30/2019 06:17:49 74.13, 75.37 65.24 08/30/2019 06:16:42 74.12, 72.82 65.40 77.42 67
50 08/30/2019 07:08:32 -74.12,-117.28 114.76 08/30/2019 07:07:24 -74.13,-119.83 114.58 77.69 68




NCC Satellite Simultaneous Nadir Overpasses (SNOs) Prediction Service
